Flag for U.S.A. Weather past 2 weeks in Mountain View, California, U.S.A.

Now
57 °F

Overcast.


Feels Like: 57 °F
Forecast: 54 / 72 °F
Wind: No wind

Location: Moffett Field

Current Time: May 28, 2015 at 1:19:26 AM

Latest Report: May 28, 2015 at 12:56 AM


Visibility: 10 mi

Pressure: 30.04 "Hg

Humidity: 81%

Dew point: 51 °F

Location of Mountain ViewLocation

Historic Weather in Mountain View — Graph

°F

Mountain View temperature yesterday

Maximum temperature yesterday: 68 °F (at 3:56 PM)
Minimum temperature yesterday: 55 °F (at 10:56 PM)
Average temperature yesterday: 60 °F

Past Weeks' High & Low Weather Summary

 TemperatureHumidityPressure
High68 °F (May 26, 2:56 PM)93% (May 15, 5:56 AM)30.14 "Hg (May 15, 5:56 AM)
Low49 °F (May 15, 5:56 AM)40% (May 13, 12:56 PM)29.81 "Hg (May 14, 3:56 PM)
Average59 °F69%30.01 "Hg
* Reported May 12 11:56 PM — May 27 11:56 PM, Mountain View, Weather by CustomWeather, © 2015

Note: Actual official high and low records may vary slightly from our data, if they occured in-between our weather recording intervals... More about our weather records

Advertising

Mountain View weather history for previous 24 hours

 ConditionsComfort  
Time TempWeatherWind HumidityBarometerVisibility
11:56 PM
Wed, May 27
56 °FOvercast.5 mph87%30.05 "Hg10 mi
11:03 PM55 °FPassing clouds.6 mph88%30.04 "Hg10 mi
10:56 PM55 °FPassing clouds.6 mph87%30.05 "Hg10 mi
9:56 PM57 °FPassing clouds.12 mph83%30.05 "Hg10 mi
8:56 PM57 °FScattered clouds.6 mph81%30.03 "Hg10 mi
7:56 PM59 °FSunny.12 mph78%30.02 "Hg10 mi
6:56 PM61 °FSunny.17 mph75%30.02 "Hg10 mi
5:56 PM64 °FSunny.10 mph63%30.02 "Hg10 mi
4:56 PM65 °FSunny.17 mph59%30.01 "Hg10 mi
3:56 PM68 °FSunny.17 mph55%30.01 "Hg10 mi
2:56 PM67 °FSunny.16 mph61%30.01 "Hg10 mi
1:56 PM65 °FSunny.13 mph66%30.02 "Hg10 mi
12:56 PM66 °FSunny.12 mph63%30.02 "Hg10 mi
11:56 AM66 °FSunny.7 mph61%30.02 "Hg10 mi
10:56 AM64 °FSunny.8 mph63%30.03 "Hg10 mi
9:56 AM63 °FScattered clouds.7 mph65%30.04 "Hg10 mi
8:56 AM60 °FOvercast.No wind69%30.03 "Hg10 mi
7:56 AM59 °FOvercast.5 mph72%30.03 "Hg10 mi
6:56 AM58 °FOvercast.No wind70%30.02 "Hg10 mi
5:56 AM56 °FOvercast.3 mph75%30.02 "Hg10 mi
4:56 AM56 °FOvercast.No wind75%30.01 "Hg10 mi
3:56 AM57 °FOvercast.5 mph74%30.01 "Hg10 mi
2:56 AM57 °FOvercast.3 mph74%30.01 "Hg10 mi
1:56 AM56 °FOvercast.3 mph77%30.02 "Hg10 mi
Weather by CustomWeather, © 2015

See weather overviewHow to use our weather pages